Location: Unspecified
(51.0000°N, 12.0000°E)
Time: 12:28:11
(UTC+02:00)

OTV 5 (USA 277) - Pass Details

Date: 23 April 2019
Orbit: 310 x 325 km, 54.5° (Epoch: 08 May)

Event Time Altitude Azimuth Distance (km) Brightness Sun altitude
Rises 21:22:03 0° 198° (SSW) 2,025 ? -9.4°
Reaches altitude 10° 21:24:35 10° 171° (S) 1,201 ? -9.8°
Enters shadow 21:25:14 13° 158° (SSE) 1,074 ? -9.8°
